Change the Weather History Date:

Sunday, September 8, 2013

  Actual Average Record
Temperature  
Mean Temperature 66 °F -  
Max Temperature 70 °F 74 °F 95 °F (1978)
Min Temperature 61 °F 53 °F 41 °F (1988)
Growing Degree Days 16 (Base 50)    
Moisture  
Dew Point 60 °F    
Average Humidity 80    
Maximum Humidity 89    
Minimum Humidity 66    
Precipitation  
Precipitation 0.00 in - - ()
Sea Level Pressure  
Sea Level Pressure 30.06 in    
Wind  
Wind Speed 10 mph (NE)    
Max Wind Speed 15 mph    
Max Gust Speed 23 mph    
Visibility 10 miles    
Events Rain    
Averages and records for this station are not official NWS values.
T = Trace of Precipitation, MM = Missing Value Source: NWS Daily Summary

Daily Weather History Graph

Daily Weather History Graph

Search for Another Location

Airport or City:

Trip Planner

Search our weather history database for the weather conditions in past years. The results will help you decide how hot, cold, wet, or windy it might be!

Date:

Astronomy

Sep. 08, 2013 Rise Set
Actual Time 6:26 AM CDT 7:17 PM CDT
Civil Twilight 5:57 AM CDT 7:46 PM CDT
Nautical Twilight 5:23 AM CDT 8:20 PM CDT
Astronomical Twilight 4:47 AM CDT 8:56 PM CDT
Moon 9:51 AM CDT (9/8) 8:44 PM CDT (9/8)
Length of Visible Light 13h 48m
Length of Day
12h 50m
Waxing Crescent, 11% of the Moon is Illuminated
Sep 8
Waxing Crescent
Sep 12
First Quarter
Sep 19
Full
Sep 26
Last Quarter
Oct 4
New

Hourly Weather History & Observations

Time (CDT) Temp. Dew Point Humidity Pressure Visibility Wind Dir Wind Speed Gust Speed Precip Events Conditions
12:15 AM 69.1 °F 63.7 °F 83% 30.04 in 10.0 mi NE 11.5 mph 17.3 mph N/A   Mostly Cloudy
12:35 AM 68.9 °F 63.0 °F 81% 30.04 in 10.0 mi NNE 12.7 mph 17.3 mph N/A   Overcast
12:55 AM 67.6 °F 61.5 °F 81% 30.05 in 10.0 mi NNE 15.0 mph 18.4 mph N/A   Overcast
1:15 AM 66.6 °F 59.4 °F 78% 30.05 in 10.0 mi NNE 12.7 mph 23.0 mph N/A   Overcast
1:35 AM 66.2 °F 59.0 °F 78% 30.05 in 10.0 mi NNE 11.5 mph 17.3 mph N/A   Overcast
1:55 AM 65.3 °F 59.2 °F 81% 30.06 in 10.0 mi NNE 12.7 mph - N/A   Overcast
2:15 AM 65.1 °F 58.5 °F 79% 30.06 in 10.0 mi NNE 8.1 mph 16.1 mph N/A   Overcast
2:35 AM 64.9 °F 58.3 °F 79% 30.06 in 10.0 mi NNE 9.2 mph - N/A   Overcast
2:55 AM 64.8 °F 58.1 °F 79% 30.07 in 10.0 mi NNE 6.9 mph - N/A   Overcast
3:15 AM 64.6 °F 57.9 °F 79% 30.07 in 10.0 mi NNE 8.1 mph - N/A   Overcast
3:35 AM 64.4 °F 56.5 °F 75% 30.07 in 10.0 mi NNE 10.4 mph - N/A   Overcast
3:55 AM 64.0 °F 55.9 °F 75% 30.07 in 10.0 mi NNE 10.4 mph 17.3 mph N/A   Overcast
4:15 AM 63.1 °F 56.3 °F 78% 30.06 in 10.0 mi NNE 12.7 mph 17.3 mph N/A   Overcast
4:35 AM 62.2 °F 56.5 °F 81% 30.06 in 10.0 mi NNE 9.2 mph - N/A   Scattered Clouds
4:55 AM 61.7 °F 56.8 °F 84% 30.06 in 10.0 mi NNE 9.2 mph - N/A   Scattered Clouds
5:15 AM 61.7 °F 57.2 °F 85% 30.06 in 10.0 mi NNE 11.5 mph 17.3 mph N/A   Mostly Cloudy
5:35 AM 61.7 °F 57.2 °F 85% 30.07 in 10.0 mi NNE 8.1 mph 17.3 mph N/A   Overcast
5:55 AM 61.9 °F 57.4 °F 85% 30.07 in 10.0 mi NNE 9.2 mph - N/A   Overcast
6:15 AM 61.9 °F 57.6 °F 86% 30.07 in 10.0 mi NE 9.2 mph - N/A   Overcast
6:35 AM 62.2 °F 57.7 °F 85% 30.08 in 10.0 mi NE 8.1 mph - N/A   Overcast
6:55 AM 62.6 °F 57.9 °F 85% 30.09 in 10.0 mi NE 9.2 mph - N/A   Overcast
7:15 AM 62.8 °F 58.1 °F 85% 30.09 in 10.0 mi NE 6.9 mph - N/A   Overcast
7:35 AM 62.8 °F 58.1 °F 85% 30.09 in 10.0 mi NNE 6.9 mph - N/A   Overcast
7:55 AM 63.0 °F 57.7 °F 83% 30.09 in 10.0 mi NNE 6.9 mph - N/A   Overcast
8:15 AM 63.9 °F 58.3 °F 82% 30.08 in 10.0 mi NNE 6.9 mph - N/A   Overcast
8:35 AM 64.8 °F 58.1 °F 79% 30.08 in 10.0 mi NE 5.8 mph - N/A   Overcast
8:55 AM 64.6 °F 58.3 °F 80% 30.08 in 10.0 mi NE 6.9 mph - N/A   Overcast
9:15 AM 65.3 °F 59.2 °F 81% 30.08 in 10.0 mi NE 4.6 mph - N/A   Overcast
9:35 AM 66.4 °F 59.5 °F 79% 30.09 in 10.0 mi ENE 10.4 mph - N/A   Overcast
9:55 AM 68.0 °F 59.9 °F 75% 30.09 in 10.0 mi NE 8.1 mph - N/A   Overcast
10:15 AM 67.5 °F 60.1 °F 77% 30.09 in 10.0 mi ENE 10.4 mph - N/A   Overcast
10:35 AM 67.1 °F 60.6 °F 80% 30.10 in 10.0 mi ENE 10.4 mph - N/A   Overcast
10:55 AM 67.1 °F 60.6 °F 80% 30.10 in 10.0 mi ENE 10.4 mph - N/A   Overcast
11:15 AM 67.6 °F 60.8 °F 79% 30.11 in 10.0 mi ENE 11.5 mph - N/A   Overcast
11:35 AM 67.5 °F 60.8 °F 79% 30.11 in 10.0 mi ENE 9.2 mph - N/A   Overcast
11:55 AM 67.5 °F 60.6 °F 79% 30.11 in 10.0 mi NE 10.4 mph - N/A   Overcast
12:15 PM 67.3 °F 60.8 °F 80% 30.09 in 10.0 mi ENE 12.7 mph - N/A   Overcast
12:35 PM 67.5 °F 60.8 °F 79% 30.09 in 10.0 mi ENE 9.2 mph - N/A   Overcast
12:55 PM 67.5 °F 61.2 °F 80% 30.09 in 10.0 mi ENE 11.5 mph 17.3 mph N/A   Overcast
1:15 PM 67.5 °F 61.7 °F 82% 30.09 in 10.0 mi East 9.2 mph - N/A   Overcast
1:35 PM 67.5 °F 61.7 °F 82% 30.08 in 10.0 mi East 11.5 mph - N/A   Overcast
1:55 PM 67.6 °F 61.9 °F 82% 30.08 in 10.0 mi East 9.2 mph - N/A   Overcast
2:15 PM 69.1 °F 61.7 °F 77% 30.08 in 10.0 mi ENE 9.2 mph - N/A   Overcast
2:35 PM 68.9 °F 61.5 °F 77% 30.07 in 10.0 mi ENE 8.1 mph - N/A   Overcast
2:55 PM 69.1 °F 61.3 °F 76% 30.07 in 10.0 mi East 6.9 mph - N/A   Overcast
3:15 PM 68.9 °F 61.2 °F 76% 30.06 in 10.0 mi East 8.1 mph - N/A   Overcast
3:35 PM 69.1 °F 60.6 °F 74% 30.06 in 10.0 mi East 8.1 mph - N/A   Overcast
3:55 PM 69.6 °F 60.1 °F 72% 30.05 in 10.0 mi East 8.1 mph - N/A   Overcast
4:15 PM 70.9 °F 59.7 °F 68% 30.04 in 10.0 mi East 10.4 mph - N/A   Overcast
4:35 PM 70.7 °F 59.0 °F 66% 30.04 in 10.0 mi East 10.4 mph - N/A   Overcast
4:55 PM 69.8 °F 59.4 °F 69% 30.04 in 10.0 mi ESE 11.5 mph - N/A   Overcast
5:15 PM 70.3 °F 59.2 °F 68% 30.03 in 10.0 mi East 10.4 mph - N/A   Overcast
5:35 PM 69.8 °F 59.4 °F 69% 30.02 in 10.0 mi East 10.4 mph - N/A   Overcast
5:55 PM 69.3 °F 59.2 °F 70% 30.02 in 10.0 mi East 9.2 mph - N/A   Overcast
6:15 PM 68.9 °F 59.4 °F 72% 30.02 in 10.0 mi East 8.1 mph - N/A   Overcast
6:35 PM 68.0 °F 59.2 °F 73% 30.01 in 10.0 mi East 8.1 mph - N/A   Scattered Clouds
6:55 PM 67.3 °F 59.5 °F 76% 30.00 in 10.0 mi East 6.9 mph - N/A   Clear
7:15 PM 66.7 °F 59.4 °F 77% 30.00 in 10.0 mi East 6.9 mph - N/A   Clear
7:35 PM 66.6 °F 58.8 °F 76% 29.97 in 10.0 mi ESE 9.2 mph - N/A   Clear
7:55 PM 66.4 °F 58.5 °F 76% 30.00 in 10.0 mi NNE 5.8 mph - N/A   Clear
8:15 PM 65.8 °F 59.0 °F 79% 30.01 in 10.0 mi NE 4.6 mph - N/A   Clear
8:35 PM 65.7 °F 59.5 °F 81% 30.01 in 10.0 mi ENE 3.5 mph - N/A   Clear
8:55 PM 65.7 °F 59.5 °F 81% 30.02 in 10.0 mi NNE 3.5 mph - N/A   Clear
9:15 PM 65.3 °F 59.9 °F 83% 30.02 in 10.0 mi ENE 4.6 mph - N/A   Mostly Cloudy
9:35 PM 65.3 °F 60.8 °F 85% 30.02 in 10.0 mi NE 3.5 mph - N/A Rain Rain
9:55 PM 64.9 °F 61.2 °F 88% 30.03 in 10.0 mi NNE 3.5 mph - N/A   Overcast
10:15 PM 64.6 °F 61.3 °F 89% 30.04 in 10.0 mi NNE 4.6 mph - N/A   Overcast
10:35 PM 64.4 °F 60.8 °F 88% 30.03 in 10.0 mi NE 4.6 mph - N/A   Overcast
10:55 PM 64.4 °F 60.4 °F 87% 30.02 in 10.0 mi ESE 3.5 mph - N/A Rain Rain
11:15 PM 64.0 °F 60.4 °F 88% 30.02 in 10.0 mi East 5.8 mph - N/A   Drizzle
11:35 PM 64.0 °F 60.8 °F 89% 30.01 in 10.0 mi East 4.6 mph - N/A   Overcast
11:55 PM 64.0 °F 60.6 °F 89% 30.00 in 10.0 mi East 5.8 mph - N/A   Overcast